Simultaneous Nadir Overpasses (SNOs) Predictions

Prediction of SNOs between GOES-16 and METOP-A Satellite Orbit:

Table of predicted SNOs for the next 14.0 days since TLE Epoch: 10/30/2021
Index Date Time (GOES-16) GOES-16 Lat,Lon METOP-A Lat,Lon Distance(km) Time Diff (sec)
1 10/31/2021 00:35:06 -0.03, -75.23 0.90, -71.00 482.07 80
2 11/01/2021 12:56:37 0.03, -75.28 0.12, -75.60 36.61 80
3 11/04/2021 00:52:15 -0.04, -75.30 -0.04, -75.26 4.80 80
4 11/06/2021 12:50:24 0.04, -75.37 -0.07, -74.88 55.61 80
5 11/08/2021 01:09:23 -0.04, -75.37 -0.97, -79.51 472.12 80
6 11/09/2021 00:51:22 -0.05, -75.39 0.15, -74.54 97.32 80
7 11/10/2021 13:07:32 0.06, -75.45 0.85, -79.14 420.13 80
8 11/11/2021 12:46:51 0.06, -75.47 -0.21, -74.15 149.75 80
9 11/13/2021 01:08:30 -0.06, -75.48 -0.76, -78.79 376.67 80
